Find Starlink 37416

NORAD ID: 100310 Int'l Des: 2026-184 Owner: SPXS Country: US Constellation: starlink operational

現在のビュー

3D地球を読み込み中...

About Starlink 37416

Starlink 37416 (NORAD 100310) is a starlink constellation satellite launched Aug 12, 2026 by SPXS of US. with a mass of 575.00 kg.

次回通過

Passes for default location (London). Set your location on the main map for personalized predictions.

高度履歴

Loading altitude history...

軌道要素

1 A0310U 26184K 26262.42280367 .00003743 00000-0 11822-3 0 9999
2 A0310 97.2845 127.5312 0001794 97.0172 263.1275 15.33442490 7131
Epoch: Sep 19, 2026 • Age: 31 hours

現在のステータス

高度 480.7 km
遠地点 / 近地点 N/A
速度 7.62 km/s
衛星直下点 -37.60°S, 124.76°W
打ち上げ日 Aug 12, 2026
運用期間 0.1 years
タイプ internet

技術仕様

分類 Payload
質量 575.00 kg
乾燥質量 530.00 kg
長さ 0.30 m
スパン 29.00 m
形状 ? Box + pan
製造者 SPXS
バスタイプ Starlink V2MO
フェーズステータス In Orbit
所有者/国 SPXS/US

Most Searched